Location: Beneden-Haastrecht
(52.0012°N, 4.7557°E)
Time: 02:53:40
(UTC+00:00)

NOSS 3-4 (A) - Pass Details

Date: 24 October 2020
Orbit: 885 x 1327 km, 63.4° (Epoch: 06 November)

Event Time Altitude Azimuth Distance (km) Brightness Sun altitude
Rises 19:44:30 0° 313° (NW) 3,761 7.5 -30.6°
Reaches altitude 10° 19:47:00 10° 314° (NW) 2,865 6.7 -31.0°
Enters shadow 19:53:46 88° 338° (NNW) 1,140 3.7 -32.0°
